{"data":{"norad_id":63111,"epoch":"2026-09-20T23:06:11.880864Z","epoch_age_seconds":122229,"freshness":"FRESH","line1":"1 63111U 25039H   26263.96263751  .00178167  00000+0  13630-2 0  9993","line2":"2 63111  43.0002 140.0884 0001227 252.2723 107.8011 15.70830399 90320","mean_motion":15.70830399,"eccentricity":0.0001227,"inclination_deg":43.0002,"raan_deg":140.0884,"arg_perigee_deg":252.2723,"mean_anomaly_deg":107.8011,"bstar":0.001363,"rev_number":9032,"period_min":91.671258776041,"perigee_km":355.69616044215,"apogee_km":357.34884588423,"semimajor_km":6734.6595031632,"source":"CELESTRAK","updated_at":"2026-09-22T09:00:49.763814Z"}}